Time,TemperatureF,DewpointF,PressureIn,WindDirection,WindDirectionDegrees,WindSpeedMPH,WindSpeedGustMPH,Humidity,HourlyPrecipIn,Conditions,Clouds,dailyrainin,SolarRadiationWatts/m^2,SoftwareType,DateUTC
2013-02-07 00:03:00,47.0,44.0,30.15,North,11,0.0,1.0,89,0.00,,,0.00,0,weatherlink.com 1.10,2013-02-07 08:03:00,
2013-02-07 00:18:00,46.9,45.0,30.15,North,11,0.0,0.0,91,0.00,,,0.00,0,weatherlink.com 1.10,2013-02-07 08:18:00,
2013-02-07 00:33:00,46.6,44.0,30.15,North,11,1.0,2.0,92,0.00,,,0.00,0,weatherlink.com 1.10,2013-02-07 08:33:00,
2013-02-07 00:48:00,46.5,45.0,30.15,North,11,1.0,1.0,93,0.00,,,0.00,0,weatherlink.com 1.10,2013-02-07 08:48:00,
2013-02-07 01:03:00,46.5,45.0,30.15,North,11,2.0,4.0,93,0.00,,,0.00,0,weatherlink.com 1.10,2013-02-07 09:03:00,
2013-02-07 01:18:00,46.6,44.0,30.15,North,11,1.0,2.0,91,0.00,,,0.00,0,weatherlink.com 1.10,2013-02-07 09:18:00,
2013-02-07 01:33:00,46.7,45.0,30.15,North,11,2.0,3.0,93,0.00,,,0.00,0,weatherlink.com 1.10,2013-02-07 09:33:00,
2013-02-07 01:48:00,46.8,45.0,30.15,North,11,0.0,4.0,93,0.00,,,0.00,0,weatherlink.com 1.10,2013-02-07 09:48:00,
2013-02-07 02:03:00,46.8,45.0,30.15,North,11,0.0,2.0,94,0.00,,,0.00,0,weatherlink.com 1.10,2013-02-07 10:03:00,
2013-02-07 02:18:00,46.3,44.0,30.15,North,11,0.0,0.0,92,0.00,,,0.00,0,weatherlink.com 1.10,2013-02-07 10:18:00,
2013-02-07 02:33:00,45.9,44.0,30.14,North,11,0.0,0.0,93,0.00,,,0.00,0,weatherlink.com 1.10,2013-02-07 10:33:00,
2013-02-07 02:48:00,45.7,44.0,30.14,North,11,0.0,0.0,92,0.00,,,0.00,0,weatherlink.com 1.10,2013-02-07 10:48:00,
2013-02-07 03:03:00,45.8,44.0,30.14,North,11,1.0,2.0,93,0.00,,,0.00,0,weatherlink.com 1.10,2013-02-07 11:03:00,
2013-02-07 03:18:00,45.9,44.0,30.13,North,11,0.0,1.0,93,0.00,,,0.00,0,weatherlink.com 1.10,2013-02-07 11:18:00,
2013-02-07 03:33:00,45.6,44.0,30.13,North,11,0.0,0.0,92,0.00,,,0.00,0,weatherlink.com 1.10,2013-02-07 11:33:00,
2013-02-07 03:48:00,45.0,43.0,30.13,North,11,0.0,0.0,92,0.00,,,0.00,0,weatherlink.com 1.10,2013-02-07 11:48:00,
2013-02-07 04:03:00,44.2,42.0,30.13,North,11,0.0,0.0,93,0.00,,,0.00,0,weatherlink.com 1.10,2013-02-07 12:03:00,
2013-02-07 04:18:00,43.3,42.0,30.13,North,11,0.0,2.0,93,0.00,,,0.00,0,weatherlink.com 1.10,2013-02-07 12:18:00,
2013-02-07 04:34:00,43.0,42.0,30.12,North,11,0.0,1.0,95,0.00,,,0.00,0,weatherlink.com 1.10,2013-02-07 12:34:00,
2013-02-07 04:49:00,43.7,42.0,30.13,North,11,0.0,2.0,95,0.00,,,0.00,0,weatherlink.com 1.10,2013-02-07 12:49:00,
2013-02-07 05:04:00,42.7,41.0,30.14,North,11,0.0,2.0,94,0.00,,,0.00,0,weatherlink.com 1.10,2013-02-07 13:04:00,
2013-02-07 05:19:00,42.1,41.0,30.14,North,11,1.0,2.0,95,0.00,,,0.00,0,weatherlink.com 1.10,2013-02-07 13:19:00,
2013-02-07 05:34:00,44.2,43.0,30.15,North,11,0.0,2.0,96,0.00,,,0.00,0,weatherlink.com 1.10,2013-02-07 13:34:00,
2013-02-07 05:49:00,44.7,43.0,30.15,North,11,0.0,2.0,95,0.00,,,0.00,0,weatherlink.com 1.10,2013-02-07 13:49:00,
2013-02-07 06:04:00,44.7,43.0,30.15,North,11,0.0,1.0,94,0.00,,,0.00,0,weatherlink.com 1.10,2013-02-07 14:04:00,
2013-02-07 06:19:00,45.3,43.0,30.15,North,11,1.0,2.0,92,0.00,,,0.00,0,weatherlink.com 1.10,2013-02-07 14:19:00,
2013-02-07 06:34:00,43.9,42.0,30.16,North,11,2.0,2.0,91,0.00,,,0.00,0,weatherlink.com 1.10,2013-02-07 14:34:00,
2013-02-07 06:49:00,43.7,42.0,30.16,NE,43,0.0,4.0,93,0.00,,,0.00,11,weatherlink.com 1.10,2013-02-07 14:49:00,
2013-02-07 07:04:00,44.8,43.0,30.15,NE,43,0.0,2.0,94,0.00,,,0.00,25,weatherlink.com 1.10,2013-02-07 15:04:00,
2013-02-07 07:19:00,44.9,43.0,30.17,NE,43,0.0,1.0,91,0.00,,,0.00,46,weatherlink.com 1.10,2013-02-07 15:19:00,
2013-02-07 07:34:00,41.1,38.0,30.16,NE,43,0.0,0.0,89,0.00,,,0.00,63,weatherlink.com 1.10,2013-02-07 15:34:00,
2013-02-07 07:49:00,43.3,42.0,30.17,SE,135,4.0,5.0,95,0.00,,,0.00,81,weatherlink.com 1.10,2013-02-07 15:49:00,
2013-02-07 08:04:00,44.0,43.0,30.17,SE,135,0.0,0.0,95,0.00,,,0.00,88,weatherlink.com 1.10,2013-02-07 16:04:00,
2013-02-07 08:19:00,45.0,43.0,30.16,SE,135,0.0,1.0,94,0.00,,,0.00,244,weatherlink.com 1.10,2013-02-07 16:19:00,
2013-02-07 08:34:00,44.7,43.0,30.16,SE,135,0.0,1.0,92,0.00,,,0.00,279,weatherlink.com 1.10,2013-02-07 16:34:00,
2013-02-07 08:49:00,45.9,44.0,30.16,SE,135,1.0,2.0,94,0.00,,,0.00,334,weatherlink.com 1.10,2013-02-07 16:49:00,
2013-02-07 09:04:00,46.3,44.0,30.16,SSE,159,0.0,4.0,93,0.00,,,0.00,388,weatherlink.com 1.10,2013-02-07 17:04:00,
2013-02-07 09:19:00,47.1,45.0,30.16,SSW,208,1.0,5.0,93,0.00,,,0.00,429,weatherlink.com 1.10,2013-02-07 17:19:00,
2013-02-07 09:34:00,47.0,45.0,30.16,SSW,209,0.0,2.0,92,0.00,,,0.00,492,weatherlink.com 1.10,2013-02-07 17:34:00,
2013-02-07 09:49:00,47.9,46.0,30.16,SSW,209,1.0,2.0,92,0.00,,,0.00,529,weatherlink.com 1.10,2013-02-07 17:49:00,
2013-02-07 10:04:00,48.8,46.0,30.15,SW,224,0.0,4.0,91,0.01,,,0.01,566,weatherlink.com 1.10,2013-02-07 18:04:00,
2013-02-07 10:19:00,49.7,47.0,30.15,WSW,248,1.0,4.0,89,0.01,,,0.01,599,weatherlink.com 1.10,2013-02-07 18:19:00,
2013-02-07 10:34:00,50.9,47.0,30.15,WSW,252,0.0,4.0,87,0.01,,,0.01,624,weatherlink.com 1.10,2013-02-07 18:34:00,
2013-02-07 10:49:00,52.0,48.0,30.14,NW,313,1.0,4.0,85,0.01,,,0.01,654,weatherlink.com 1.10,2013-02-07 18:49:00,
2013-02-07 11:04:00,53.5,48.0,30.14,NW,308,1.0,5.0,81,0.00,,,0.01,673,weatherlink.com 1.10,2013-02-07 19:04:00,
2013-02-07 11:19:00,54.4,48.0,30.14,NW,326,2.0,5.0,79,0.00,,,0.01,687,weatherlink.com 1.10,2013-02-07 19:19:00,
2013-02-07 11:34:00,56.1,48.0,30.13,WNW,296,2.0,5.0,75,0.00,,,0.01,696,weatherlink.com 1.10,2013-02-07 19:34:00,
2013-02-07 11:49:00,57.3,48.0,30.13,WNW,287,6.0,6.0,70,0.00,,,0.01,703,weatherlink.com 1.10,2013-02-07 19:49:00,
2013-02-07 12:05:00,58.4,47.0,30.12,NNW,332,2.0,5.0,67,0.00,,,0.01,715,weatherlink.com 1.10,2013-02-07 20:05:00,
2013-02-07 12:20:00,59.2,46.0,30.11,NW,323,1.0,5.0,61,0.00,,,0.01,705,weatherlink.com 1.10,2013-02-07 20:20:00,
2013-02-07 12:35:00,60.0,44.0,30.10,West,281,2.0,4.0,57,0.00,,,0.01,703,weatherlink.com 1.10,2013-02-07 20:35:00,
2013-02-07 12:50:00,62.4,46.0,30.09,South,171,2.0,8.0,56,0.00,,,0.01,670,weatherlink.com 1.10,2013-02-07 20:50:00,
2013-02-07 13:05:00,63.6,45.0,30.09,South,171,4.0,9.0,52,0.00,,,0.01,654,weatherlink.com 1.10,2013-02-07 21:05:00,
2013-02-07 13:20:00,64.2,46.0,30.08,SSW,213,5.0,10.0,51,0.00,,,0.01,628,weatherlink.com 1.10,2013-02-07 21:20:00,
2013-02-07 13:35:00,64.7,46.0,30.07,SSW,207,1.0,5.0,51,0.00,,,0.01,633,weatherlink.com 1.10,2013-02-07 21:35:00,
2013-02-07 13:50:00,65.7,45.0,30.07,South,184,5.0,11.0,48,0.00,,,0.01,598,weatherlink.com 1.10,2013-02-07 21:50:00,
2013-02-07 14:05:00,65.9,45.0,30.06,South,190,9.0,13.0,48,0.00,,,0.01,550,weatherlink.com 1.10,2013-02-07 22:05:00,
2013-02-07 14:20:00,65.7,47.0,30.05,South,171,6.0,9.0,51,0.00,,,0.01,524,weatherlink.com 1.10,2013-02-07 22:20:00,
2013-02-07 14:35:00,66.0,48.0,30.05,South,178,4.0,11.0,52,0.00,,,0.01,499,weatherlink.com 1.10,2013-02-07 22:35:00,
2013-02-07 14:50:00,65.2,47.0,30.04,SW,214,8.0,12.0,53,0.00,,,0.01,431,weatherlink.com 1.10,2013-02-07 22:50:00,
2013-02-07 15:05:00,65.4,47.0,30.04,SSW,201,5.0,10.0,51,0.00,,,0.01,418,weatherlink.com 1.10,2013-02-07 23:05:00,
2013-02-07 15:20:00,64.9,46.0,30.03,SSE,163,6.0,10.0,51,0.00,,,0.01,385,weatherlink.com 1.10,2013-02-07 23:20:00,
2013-02-07 15:35:00,64.5,45.0,30.03,SSW,199,10.0,12.0,49,0.00,,,0.01,327,weatherlink.com 1.10,2013-02-07 23:35:00,
2013-02-07 15:50:00,63.6,45.0,30.03,South,173,6.0,12.0,51,0.00,,,0.01,269,weatherlink.com 1.10,2013-02-07 23:50:00,
2013-02-07 16:05:00,63.3,47.0,30.02,SSW,199,6.0,11.0,55,0.00,,,0.01,218,weatherlink.com 1.10,2013-02-08 00:05:00,
2013-02-07 16:20:00,61.9,46.0,30.02,SSW,212,6.0,12.0,57,0.00,,,0.01,160,weatherlink.com 1.10,2013-02-08 00:20:00,
2013-02-07 16:35:00,60.3,47.0,30.02,South,169,9.0,12.0,62,0.00,,,0.01,107,weatherlink.com 1.10,2013-02-08 00:35:00,
2013-02-07 16:50:00,58.7,48.0,30.02,South,178,6.0,13.0,67,0.00,,,0.01,63,weatherlink.com 1.10,2013-02-08 00:50:00,
2013-02-07 17:05:00,56.4,47.0,30.03,SSE,165,10.0,13.0,72,0.00,,,0.01,19,weatherlink.com 1.10,2013-02-08 01:05:00,
2013-02-07 17:20:00,54.8,48.0,30.03,SSE,150,5.0,13.0,77,0.00,,,0.01,7,weatherlink.com 1.10,2013-02-08 01:20:00,
2013-02-07 17:35:00,53.2,48.0,30.04,South,182,5.0,13.0,81,0.00,,,0.01,0,weatherlink.com 1.10,2013-02-08 01:35:00,
2013-02-07 17:50:00,52.0,47.0,30.04,South,184,8.0,13.0,84,0.00,,,0.01,0,weatherlink.com 1.10,2013-02-08 01:50:00,
2013-02-07 18:05:00,51.3,47.0,30.05,South,169,5.0,12.0,85,0.00,,,0.01,0,weatherlink.com 1.10,2013-02-08 02:05:00,
2013-02-07 18:20:00,51.3,47.0,30.05,SSE,157,6.0,9.0,85,0.00,,,0.01,0,weatherlink.com 1.10,2013-02-08 02:20:00,
2013-02-07 18:35:00,51.2,47.0,30.05,South,170,2.0,8.0,85,0.00,,,0.01,0,weatherlink.com 1.10,2013-02-08 02:35:00,
2013-02-07 18:50:00,50.9,47.0,30.05,South,175,4.0,8.0,85,0.00,,,0.01,0,weatherlink.com 1.10,2013-02-08 02:50:00,
2013-02-07 19:05:00,50.7,46.0,30.05,South,175,1.0,13.0,84,0.00,,,0.01,0,weatherlink.com 1.10,2013-02-08 03:05:00,
2013-02-07 19:20:00,50.5,46.0,30.05,SSW,192,4.0,10.0,84,0.00,,,0.01,0,weatherlink.com 1.10,2013-02-08 03:20:00,
2013-02-07 19:35:00,50.1,46.0,30.05,South,191,4.0,9.0,84,0.00,,,0.01,0,weatherlink.com 1.10,2013-02-08 03:35:00,
2013-02-07 19:50:00,49.9,45.0,30.05,SSE,153,4.0,8.0,82,0.00,,,0.01,0,weatherlink.com 1.10,2013-02-08 03:50:00,
2013-02-07 20:05:00,49.8,45.0,30.05,SSW,203,5.0,9.0,82,0.00,,,0.01,0,weatherlink.com 1.10,2013-02-08 04:05:00,
2013-02-07 20:20:00,49.6,44.0,30.04,South,169,4.0,8.0,82,0.00,,,0.01,0,weatherlink.com 1.10,2013-02-08 04:20:00,
2013-02-07 20:35:00,49.4,44.0,30.05,South,188,4.0,8.0,82,0.00,,,0.01,0,weatherlink.com 1.10,2013-02-08 04:35:00,
2013-02-07 20:51:00,49.3,44.0,30.05,SSE,165,4.0,8.0,83,0.00,,,0.01,0,weatherlink.com 1.10,2013-02-08 04:51:00,
2013-02-07 21:06:00,49.1,44.0,30.03,SSE,168,4.0,8.0,82,0.00,,,0.01,0,weatherlink.com 1.10,2013-02-08 05:06:00,
2013-02-07 21:21:00,48.8,44.0,30.04,SSW,199,4.0,9.0,82,0.00,,,0.01,0,weatherlink.com 1.10,2013-02-08 05:21:00,
2013-02-07 21:36:00,48.5,44.0,30.04,SSE,162,7.0,11.0,83,0.00,,,0.01,0,weatherlink.com 1.10,2013-02-08 05:36:00,
2013-02-07 21:51:00,48.1,44.0,30.04,SSE,161,8.0,10.0,84,0.00,,,0.01,0,weatherlink.com 1.10,2013-02-08 05:51:00,
2013-02-07 22:06:00,47.6,43.0,30.05,SSE,157,6.0,13.0,85,0.00,,,0.01,0,weatherlink.com 1.10,2013-02-08 06:06:00,
2013-02-07 22:21:00,47.3,43.0,30.05,SSW,207,6.0,11.0,85,0.00,,,0.01,0,weatherlink.com 1.10,2013-02-08 06:21:00,
2013-02-07 22:36:00,47.2,43.0,30.04,South,171,3.0,8.0,84,0.00,,,0.01,0,weatherlink.com 1.10,2013-02-08 06:36:00,
2013-02-07 22:51:00,47.3,42.0,30.04,SSE,161,4.0,8.0,83,0.00,,,0.01,0,weatherlink.com 1.10,2013-02-08 06:51:00,
2013-02-07 23:06:00,47.2,43.0,30.04,SSW,200,4.0,8.0,84,0.00,,,0.01,0,weatherlink.com 1.10,2013-02-08 07:06:00,
2013-02-07 23:21:00,47.1,42.0,30.04,South,191,5.0,7.0,83,0.00,,,0.01,0,weatherlink.com 1.10,2013-02-08 07:21:00,
2013-02-07 23:36:00,47.0,42.0,30.04,South,180,5.0,7.0,83,0.00,,,0.01,0,weatherlink.com 1.10,2013-02-08 07:36:00,
2013-02-07 23:51:00,46.9,43.0,30.04,SSW,192,1.0,9.0,85,0.00,,,0.01,0,weatherlink.com 1.10,2013-02-08 07:51:00,